Location: College Park
(38.9810°N, 76.9370°W)
Time: 11:30:16
(UTC-04:00)

ISS - Pass Details

Date: 12 March 2018
Orbit: 402 x 408 km, 51.6° (Epoch: 23 June)

Event Time Altitude Azimuth Distance (km) Brightness Sun altitude
Exits shadow 05:11:00 - 9° (N) 1,542 -0.6 -26.3°
Enters shadow 06:08:31 -72° 265° (W) 12,532 3.7 -15.4°
Maximum altitude 06:48:10 16° 20° (NNE) 1,171 -1.2 -7.7°
